Location: Oshawa
(43.9000°N, 78.8670°W)
Time: 04:33:05
(UTC-04:00)

Cosmos 839 Rocket - Visible Passes

Search period start: 02 September 2015 00:00
Search period end: 12 September 2015 00:00
Orbit: 958 x 2094 km, 65.9° (Epoch: 31 August)

Date Brightness Start Highest point End Pass type
(mag) Time Alt. Az. Time Alt. Az. Time Alt. Az.
02 Sep 6.2 00:06:14 10° NNW 00:16:33 44° NE 00:22:49 27° E visible
02 Sep 5.4 02:06:44 10° NW 02:18:13 75° WSW 02:19:21 71° SSW visible
02 Sep 6.5 04:09:14 10° NW 04:15:53 21° W 04:15:53 21° W visible
02 Sep 7.0 21:22:08 10° NW 21:29:19 22° N 21:37:33 10° NE visible
02 Sep 6.5 23:24:10 10° NNW 23:33:49 36° NNE 23:41:16 20° E visible
03 Sep 5.4 01:24:40 10° NNW 01:36:09 86° ENE 01:37:49 72° SE visible
03 Sep 6.3 03:26:11 10° NW 03:34:21 31° W 03:34:21 31° W visible
03 Sep 7.0 20:39:09 10° NW 20:46:09 21° N 20:54:08 10° NE visible
03 Sep 6.7 22:42:00 10° NNW 22:50:57 30° NNE 22:59:51 13° E visible
04 Sep 5.6 00:42:38 10° NNW 00:53:55 69° NE 00:56:24 58° ESE visible
04 Sep 5.9 02:43:37 10° NW 02:52:57 42° W 02:52:57 42° W visible
04 Sep 6.8 21:59:40 10° NNW 22:07:56 26° NNE 22:17:26 10° ENE visible
05 Sep 5.9 00:00:37 10° NNW 00:11:31 55° NE 00:15:06 44° E visible
05 Sep 5.6 02:01:17 10° NW 02:11:39 57° W 02:11:39 57° W visible
05 Sep 7.0 04:05:40 10° WNW 04:08:13 13° WNW 04:08:13 13° WNW visible
05 Sep 6.9 21:17:10 10° NW 21:24:50 23° NNE 21:33:37 10° ENE visible
05 Sep 6.2 23:18:35 10° NNW 23:28:57 44° NE 23:33:53 32° E visible
06 Sep 5.4 01:19:07 10° NW 01:30:27 76° WSW 01:30:27 76° WSW visible
06 Sep 6.7 03:21:34 10° NW 03:27:00 20° W 03:27:00 20° W visible
06 Sep 6.9 20:34:24 10° NW 20:41:39 22° N 20:49:57 10° NE visible
06 Sep 6.4 22:36:29 10° NNW 22:46:12 36° NNE 22:52:43 23° E visible
07 Sep 5.4 00:37:02 10° NNW 00:48:35 85° ENE 00:49:18 81° ESE visible
07 Sep 6.4 02:38:33 10° NW 02:45:52 30° W 02:45:52 30° W visible
07 Sep 6.6 21:54:19 10° NNW 22:03:19 30° NNE 22:11:38 15° ENE visible
07 Sep 5.6 23:55:00 10° NNW 00:06:20 68° NE 00:08:13 62° E visible
08 Sep 6.1 01:55:59 10° NW 02:04:47 41° W 02:04:47 41° W visible
08 Sep 6.7 21:11:59 10° NNW 21:20:18 26° NNE 21:29:48 10° ENE visible
08 Sep 5.8 23:12:58 10° NNW 23:23:56 54° NE 23:27:11 45° E visible
09 Sep 5.7 01:13:39 10° NW 01:23:46 57° W 01:23:46 57° W visible
09 Sep 7.1 03:17:56 10° WNW 03:20:21 13° WNW 03:20:21 13° WNW visible
09 Sep 6.8 20:29:27 10° NW 20:37:10 23° NNE 20:46:00 10° ENE visible
09 Sep 6.1 22:30:56 10° NNW 22:41:20 44° NE 22:46:12 32° E visible
10 Sep 5.4 00:31:29 10° NW 00:42:48 76° WSW 00:42:48 76° WSW visible
10 Sep 6.8 02:33:55 10° NW 02:39:23 21° W 02:39:23 21° W visible
10 Sep 6.9 19:46:40 10° NW 19:54:00 22° N 20:02:22 10° NE visible
10 Sep 6.4 21:48:50 10° NNW 21:58:35 36° NNE 22:05:17 22° E visible
10 Sep 5.4 23:49:24 10° NNW 00:01:00 85° ENE 00:01:52 80° ESE visible
11 Sep 6.5 01:50:55 10° NW 01:58:28 30° W 01:58:28 30° W visible
11 Sep 6.5 21:06:38 10° NNW 21:15:41 30° NNE 21:24:24 14° E visible
11 Sep 5.5 23:07:22 10° NNW 23:18:45 68° NE 23:20:59 59° E visible
